Hourly Data Report for September 08, 2017

All times are specified in Local Standard Time (LST). Add 1 hour to adjust for Daylight Saving Time where and when it is observed.

KAMLOOPS A
BRITISH COLUMBIA

50°42'09.000" N
120°26'55.000" W
345.30 m
1163781
71887
YKA

Download Data

Hourly Data (September 2017)
Hourly Data Report for September 8, 2017
Temp Definition
°C
Dew Point Temp Definition
°C
Rel Hum Definition
%
Wind Dir Definition
10's deg

Wind Spd Definition
km/h
Visibility Definition
km
Stn Press Definition
kPa
Hmdx Definition


Wind Chill Definition


Weather Definition


TIME
00:00 Legend Double Dagger 18.8 12.7 68 6 4 9.7 96.79     Smoke
01:00 Legend Double Dagger 18.5 12.5 68 16 9 9.7 96.77     Smoke
02:00 Legend Double Dagger 18.4 11.5 64 7 3 9.7 96.87     Smoke
03:00 Legend Double Dagger 17.6 12.4 72 12 8 9.7 96.91     Smoke
04:00 Legend Double Dagger 18.1 11.6 66 9 14 9.7 96.93     Smoke
05:00 Legend Double Dagger 17.6 11.4 66 13 5 9.7 96.94     Smoke
06:00 Legend Double Dagger 17.5 12.6 73 36 2 8.1 96.98     Smoke
07:00 Legend Double Dagger 17.7 12.8 73 17 5 8.1 97.01     Smoke
08:00 Legend Double Dagger 21.5 14.6 64 28 7 8.1 97.03 25   Smoke
09:00 Legend Double Dagger 23.1 13.7 55 28 17 8.1 97.04 26   Smoke
10:00 Legend Double Dagger 23.5 13.9 54 27 22 8.1 97.04 27   Smoke
11:00 Legend Double Dagger 24.0 13.8 52 27 22 11.3 97.00 27   LegendNANA
12:00 Legend Double Dagger 24.1 13.6 51 26 21 11.3 96.96 27   LegendNANA
13:00 Legend Double Dagger 22.7 14.2 58 26 21 16.1 96.97 26   Rain Showers
14:00 Legend Double Dagger 19.3 16.5 83 27 35 16.1 96.95     Thunderstorms,Rain Showers
15:00 Legend Double Dagger 21.0 17.3 79 26 13 11.3 96.96 26   LegendNANA
16:00 Legend Double Dagger 21.9 16.0 69 12 8 11.3 96.94 27   Mainly Clear
17:00 Legend Double Dagger 21.5 15.7 69 13 11 11.3 96.89 26   LegendNANA
18:00 Legend Double Dagger 20.8 15.1 70 13 11 16.1 96.89 25   LegendNANA
19:00 Legend Double Dagger 18.9 14.9 77 10 11 16.1 96.92     Mainly Clear
20:00 Legend Double Dagger 18.4 15.8 85 11 13 16.1 96.94     LegendNANA
21:00 Legend Double Dagger 17.8 15.8 88 11 14 24.1 96.92     LegendNANA
22:00 Legend Double Dagger 17.4 15.6 89 8 11 24.1 96.96     Mainly Clear
23:00 Legend Double Dagger 17.3 15.2 87 11 21 24.1 96.96     LegendNANA

Notes on Data Quality.

Legend

  • E = Estimated
  • M = Missing
  • NA = Not Available
  • ‡ = Partner data that is not subject to review by the National Climate Archives
Date modified: